Glover Park, Texas, United States
Lat: 32.76N, Lon: 96.71W
Wx Zone: TXZ119
Local Info
Past Weather Observations for Today

NOTE: This archive is for the closest National Weather Service station to Glover Park. Information may differ from the station used for current weather conditions.

Click here for Long-term Archive

Time Weather Temperature Dewpoint Humidity Pressure Winds Precip Visibility
18:57
Clear
84°F / 29°C 70°F / 21°C 62% N/A SE 11.5 mph
(SE 19 kph)
- 10SM
17:53
Clear
88°F / 31°C 70°F / 21°C 55% N/A ESE 9.2 mph
(ESE 15 kph)
- 10SM
16:50
Clear
88°F / 31°C 70°F / 21°C 55% N/A SE 10.4 mph
(SE 17 kph)
- 10SM
15:50
Clear
86°F / 30°C 70°F / 21°C 59% N/A SE 8.1 mph
(SE 13 kph)
- 10SM
14:50
Partly Cloudy
88°F / 31°C 70°F / 21°C 55% N/A SE 10.4 mph
(SE 17 kph)
- 10SM
13:50
Partly Cloudy
88°F / 31°C 70°F / 21°C 55% 30.01 in
(1016 mb)
SE 6.9 mph
(SE 11 kph)
- 10SM
12:47
Partly Cloudy
82°F / 28°C 70°F / 21°C 66% 30.04 in
(1017 mb)
SE 6.9 mph
(SE 11 kph)
- 10SM
11:50
Partly Cloudy
Light Rain
79°F / 26°C 73°F / 23°C 84% 30.06 in
(1018 mb)
ESE 5.8 mph
(ESE 9 kph)
- 10SM
10:47
Mostly Cloudy
Light Rain
73°F / 23°C 72°F / 22°C 94% 30.06 in
(1018 mb)
SE 6.9 mph
(SE 11 kph)
- 10SM
09:47
Overcast
Rain
73°F / 23°C 72°F / 22°C 94% 30.09 in
(1019 mb)
ESE 6.9 mph
(ESE 11 kph)
- 4SM
08:47
Overcast
Light Rain
73°F / 23°C 72°F / 22°C 94% 30.09 in
(1019 mb)
Calm - 7SM
07:50
Overcast
Rain
73°F / 23°C 72°F / 22°C 94% 30.09 in
(1019 mb)
Variable 3.5 mph
(Variable 6 kph)
- 5SM
07:47
Overcast
Rain
73°F / 23°C 72°F / 22°C 94% 30.09 in
(1019 mb)
Calm - 2SM
06:50
Overcast
75°F / 24°C 70°F / 21°C 83% 30.06 in
(1018 mb)
Calm - 10SM
05:50
Overcast
73°F / 23°C 70°F / 21°C 89% 30.06 in
(1018 mb)
SE 5.8 mph
(SE 9 kph)
- 10SM
04:35
Mostly Cloudy
75°F / 24°C 68°F / 20°C 78% 30.04 in
(1017 mb)
SE 6.9 mph
(SE 11 kph)
- 10SM
04:15
Mostly Cloudy
75°F / 24°C 68°F / 20°C 78% 30.04 in
(1017 mb)
SE 6.9 mph
(SE 11 kph)
- 10SM
03:55
Partly Cloudy
75°F / 24°C 68°F / 20°C 78% 30.04 in
(1017 mb)
SE 5.8 mph
(SE 9 kph)
- 10SM
03:35
Mostly Cloudy
73°F / 23°C 68°F / 20°C 83% 30.04 in
(1017 mb)
SE 5.8 mph
(SE 9 kph)
- 10SM
03:15
Mostly Cloudy
72°F / 22°C 68°F / 20°C 88% 30.04 in
(1017 mb)
Calm - 10SM
02:55
Partly Cloudy
72°F / 22°C 68°F / 20°C 88% 30.04 in
(1017 mb)
Calm - 10SM
02:35
Partly Cloudy
72°F / 22°C 68°F / 20°C 88% 30.04 in
(1017 mb)
Calm - 10SM
02:15
Clear
72°F / 22°C 68°F / 20°C 88% 30.04 in
(1017 mb)
E 3.5 mph
(E 6 kph)
- 10SM
01:55
Clear
72°F / 22°C 66°F / 19°C 83% 30.04 in
(1017 mb)
E 4.6 mph
(E 7 kph)
- 10SM
01:35
Clear
72°F / 22°C 68°F / 20°C 88% 30.04 in
(1017 mb)
E 3.5 mph
(E 6 kph)
- 10SM
01:15
Clear
72°F / 22°C 68°F / 20°C 88% 30.04 in
(1017 mb)
Calm - 10SM
00:55
Clear
72°F / 22°C 68°F / 20°C 88% 30.04 in
(1017 mb)
E 3.5 mph
(E 6 kph)
- 10SM
00:35
Clear
72°F / 22°C 68°F / 20°C 88% 30.06 in
(1018 mb)
Calm - 10SM
00:15
Clear
72°F / 22°C 68°F / 20°C 88% 30.06 in
(1018 mb)
Calm - 10SM
Time Weather Temperature Dewpoint Humidity Pressure Winds Precip Visibility


Weather for websites

WeatherForYou.com, LLC is not responsible for any damages or problems caused by this service. Current weather conditions are obtained from the closest station including government and personal stations which may have varying degrees of accuracy. Weather forecasts are derived from the NOAA NDFD. Like all things, this site belongs to Jesus Christ... He just trusts me to maintain it. If you have any questions or comments email webmaster@weatherforyou.com

Copyright © 2014, WeatherForYou.com LLC. All rights reserved.